Date String (YYYY-MM-DD hh:mm:ss) UTC,Instrument flags,absolute air pressure of the measurement (hPa),sample flow rate (lpm),inlet stack bypass flow (lpm),air temperature of the measurement (°C),ambient temperature measured by the external sensor (°C),aerosol sample conditioner tube jacket temperature (°C),OPC LED temperature (°C),internal box temperature (°C),relative humidity of the measurement (%),span deviation,mass concentration of particles derived from Lorenz-Mie calculation of OPC scattering (μg/m³),mass concentration of particles derived from Lorenz-Mie calculation of OPC scattering (μg/m³),mass concentration of particles derived from Lorenz-Mie calculation of OPC scattering (μg/m³)
DateTimeUTC,F1_M11,P_M11,Q1_M11,Q2_M11,T1_M11,T2_M11,T3_M11,T4_M11,T5_M11,U1_M11,ZSPAN_M11,X0_M11,X2_M11,X1_M11
2023-08-06 13:00:00,SystemResetWarning,0838.6,5.01,000.00,029.9,028.8,000.0,038.4,031.5,31.5,0000.0,0006.20,0003.76,0003.51
2023-08-06 13:01:00,SystemResetWarning,0838.6,5.00,000.00,029.9,028.8,000.0,038.4,031.5,31.4,0000.0,0006.36,0003.79,0003.53
2023-08-06 13:02:00,SystemResetWarning,0838.6,5.01,000.00,029.9,028.8,000.0,038.4,031.5,31.4,0000.0,0006.36,0003.81,0003.54
2023-08-06 13:03:00,SystemResetWarning,0838.6,5.00,000.00,029.9,028.8,000.0,038.5,031.6,31.4,0000.0,0006.11,0003.78,0003.54
2023-08-06 13:04:00,SystemResetWarning,0838.7,4.98,000.00,029.9,028.2,000.0,038.4,031.5,31.4,0000.0,0005.97,0003.76,0003.53
2023-08-06 13:05:00,SystemResetWarning,0838.7,5.00,000.00,029.9,026.3,000.0,038.3,031.2,31.6,0000.0,0005.85,0003.71,0003.52
2023-08-06 13:06:00,SystemResetWarning,0838.7,5.00,000.00,029.8,025.5,000.0,038.2,031.1,31.8,0000.0,0006.00,0003.71,0003.50
2023-08-06 13:07:00,SystemResetWarning,0838.7,5.01,000.00,029.7,025.6,000.0,038.2,030.8,31.9,0000.0,0006.03,0003.71,0003.49
2023-08-06 13:08:00,SystemResetWarning,0838.8,5.00,000.00,029.6,025.9,000.0,038.2,030.8,31.9,0000.0,0006.00,0003.74,0003.48
2023-08-06 13:09:00,SystemResetWarning,0838.7,4.99,000.00,029.6,026.3,000.0,038.2,030.9,31.8,0000.0,0005.78,0003.77,0003.48
2023-08-06 13:10:00,SystemResetWarning,0838.8,5.01,000.00,029.5,026.7,000.0,038.2,030.9,31.7,0000.0,0006.08,0003.74,0003.47
2023-08-06 13:11:00,SystemResetWarning,0838.8,5.00,000.00,029.5,027.0,000.0,038.2,031.0,31.9,0000.0,0005.94,0003.71,0003.45
2023-08-06 13:12:00,SystemResetWarning,0838.8,4.99,000.00,029.5,027.3,000.0,038.2,031.0,31.9,0000.0,0005.90,0003.68,0003.44
2023-08-06 13:13:00,SystemResetWarning,0838.7,5.00,000.00,029.5,027.5,000.0,038.2,031.1,32.0,0000.0,0005.77,0003.64,0003.43
2023-08-06 13:14:00,SystemResetWarning,0838.7,5.00,000.00,029.5,027.7,000.0,038.2,031.1,32.3,0000.0,0005.87,0003.64,0003.42
2023-08-06 13:15:00,SystemResetWarning,0838.7,5.00,000.00,029.6,027.9,000.0,038.2,031.1,32.4,0000.0,0006.00,0003.67,0003.42
2023-08-06 13:16:00,SystemResetWarning,0838.7,5.00,000.00,029.6,028.0,000.0,038.2,031.2,32.0,0000.0,0006.15,0003.70,0003.42
2023-08-06 13:17:00,SystemResetWarning,0838.6,4.98,000.00,029.6,028.1,000.0,038.2,031.2,32.0,0000.0,0006.16,0003.71,0003.43
2023-08-06 13:18:00,SystemResetWarning,0838.6,5.00,000.00,029.6,028.2,000.0,038.2,031.2,31.9,0000.0,0006.18,0003.73,0003.43
2023-08-06 13:19:00,SystemResetWarning,0838.6,5.01,000.00,029.6,028.3,000.0,038.2,031.2,31.6,0000.0,0006.60,0003.73,0003.44
2023-08-06 13:20:00,SystemResetWarning,0838.6,5.01,000.00,029.6,028.4,000.0,038.2,031.3,31.7,0000.0,0006.82,0003.73,0003.46
2023-08-06 13:21:00,SystemResetWarning,0838.7,5.00,000.00,029.7,028.4,000.0,038.3,031.3,31.7,0000.0,0006.21,0003.73,0003.48
2023-08-06 13:22:00,SystemResetWarning,0838.7,5.00,000.00,029.7,028.4,000.0,038.3,031.3,31.8,0000.0,0006.82,0003.78,0003.51
2023-08-06 13:23:00,SystemResetWarning,0838.8,5.00,000.00,029.7,028.5,000.0,038.3,031.3,31.9,0000.0,0007.36,0003.83,0003.55
2023-08-06 13:24:00,SystemResetWarning,0838.8,5.00,000.00,029.7,028.5,000.0,038.3,031.4,32.0,0000.0,0007.53,0003.91,0003.63
2023-08-06 13:25:00,SystemResetWarning,0838.8,5.00,000.00,029.7,028.6,000.0,038.3,031.4,31.8,0000.0,0007.62,0004.00,0003.70
2023-08-06 13:26:00,SystemResetWarning,0838.7,5.00,000.00,029.8,028.6,000.0,038.3,031.4,31.6,0000.0,0007.74,0004.07,0003.76
2023-08-06 13:27:00,SystemResetWarning,0838.7,5.00,000.00,029.8,028.6,000.0,038.3,031.4,31.4,0000.0,0007.73,0004.10,0003.80
2023-08-06 13:28:00,SystemResetWarning,0838.7,5.01,000.00,029.8,028.6,000.0,038.4,031.4,31.4,0000.0,0007.68,0004.12,0003.85
2023-08-06 13:29:00,SystemResetWarning,0838.7,5.00,000.00,029.8,028.6,000.0,038.4,031.4,31.5,0000.0,0008.28,0004.13,0003.87
2023-08-06 13:30:00,SystemResetWarning,0838.7,5.01,000.00,029.8,028.7,000.0,038.4,031.4,31.5,0000.0,0008.26,0004.14,0003.89
2023-08-06 13:31:00,SystemResetWarning,0838.7,5.00,000.00,029.8,028.7,000.0,038.4,031.5,31.5,0000.0,0008.00,0004.14,0003.89
2023-08-06 13:32:00,SystemResetWarning,0838.7,5.00,000.00,029.9,028.7,000.0,038.4,031.5,31.6,0000.0,0007.96,0004.13,0003.88
2023-08-06 13:33:00,SystemResetWarning,0838.7,5.00,000.00,029.9,028.7,000.0,038.4,031.5,31.6,0000.0,0008.02,0004.14,0003.87
2023-08-06 13:34:00,SystemResetWarning,0838.6,5.00,000.00,029.9,028.7,000.0,038.4,031.5,31.5,0000.0,0007.95,0004.09,0003.84
2023-08-06 13:35:00,SystemResetWarning,0838.6,5.00,000.00,029.9,028.7,000.0,038.5,031.5,31.5,0000.0,0007.79,0004.03,0003.77
2023-08-06 13:36:00,SystemResetWarning,0838.6,4.99,000.00,029.9,028.7,000.0,038.5,031.5,31.5,0000.0,0007.75,0003.97,0003.72
2023-08-06 13:37:00,SystemResetWarning,0838.6,5.00,000.00,029.9,028.8,000.0,038.5,031.5,31.5,0000.0,0007.82,0003.91,0003.66
2023-08-06 13:38:00,SystemResetWarning,0838.6,5.00,000.00,030.0,028.8,000.0,038.5,031.5,31.4,0000.0,0007.96,0003.88,0003.62
2023-08-06 13:39:00,SystemResetWarning,0838.6,5.00,000.00,030.0,028.8,000.0,038.5,031.6,31.1,0000.0,0007.92,0003.84,0003.58
2023-08-06 13:40:00,SystemResetWarning,0838.6,5.01,000.00,030.0,028.8,000.0,038.5,031.6,31.1,0000.0,0007.30,0003.83,0003.57
2023-08-06 13:41:00,SystemResetWarning,0838.6,5.00,000.00,030.0,028.8,000.0,038.6,031.6,31.2,-001.2,0007.25,0003.86,0003.55
2023-08-06 13:42:00,SystemResetWarning,0838.6,5.00,000.00,030.0,028.8,000.0,038.6,031.6,31.0,-000.5,0007.37,0003.86,0003.54
2023-08-06 13:43:00,SystemResetWarning,0838.5,5.00,000.00,030.0,028.8,000.0,038.6,031.6,30.9,0000.0,0007.35,0003.84,0003.53
2023-08-06 13:44:00,SystemResetWarning,0838.4,5.00,000.00,030.0,028.8,000.0,038.6,031.6,31.1,-002.0,0006.78,0003.82,0003.52
2023-08-06 13:45:00,SystemResetWarning,0838.4,5.00,000.00,030.0,028.8,000.0,038.6,031.6,31.3,-002.0,0006.19,0003.82,0003.51
2023-08-06 13:46:00,SystemResetWarning,0838.4,5.00,000.00,030.0,028.8,000.0,038.6,031.6,31.1,-001.5,0006.18,0003.81,0003.50
2023-08-06 13:47:00,SystemResetWarning,0838.4,5.00,000.00,030.1,028.8,000.0,038.6,031.6,31.1,-001.1,0006.23,0003.83,0003.50
2023-08-06 13:48:00,SystemResetWarning,0838.3,5.00,000.00,030.1,028.8,000.0,038.6,031.6,31.3,-001.4,0005.92,0003.83,0003.50
2023-08-06 13:49:00,SystemResetWarning,0838.3,5.00,000.00,030.1,028.8,000.0,038.7,031.7,31.6,-002.5,0005.70,0003.84,0003.50
2023-08-06 13:50:00,SystemResetWarning,0838.3,5.00,000.00,030.1,028.9,000.0,038.7,031.7,31.6,-003.2,0005.84,0003.86,0003.50
2023-08-06 13:51:00,SystemResetWarning,0838.3,5.00,000.00,030.1,028.9,000.0,038.7,031.7,31.5,-002.7,0005.91,0003.88,0003.50
2023-08-06 13:52:00,SystemResetWarning,0838.3,5.00,000.00,030.1,028.9,000.0,038.7,031.7,31.5,-003.3,0005.78,0003.86,0003.50
2023-08-06 13:53:00,SystemResetWarning,0838.3,4.99,000.00,030.1,028.9,000.0,038.7,031.7,31.3,-003.5,0005.63,0003.85,0003.49
2023-08-06 13:54:00,SystemResetWarning,0838.3,5.00,000.00,030.1,028.9,000.0,038.7,031.7,31.5,-003.1,0005.64,0003.85,0003.49
2023-08-06 13:55:00,SystemResetWarning,0838.3,5.00,000.00,030.1,028.9,000.0,038.7,031.7,31.7,-003.4,0005.65,0003.85,0003.49
2023-08-06 13:56:00,SystemResetWarning,0838.3,5.00,000.00,030.2,028.9,000.0,038.7,031.7,31.8,-002.8,0005.66,0003.85,0003.51
2023-08-06 13:57:00,SystemResetWarning,0838.3,5.01,000.00,030.2,028.9,000.0,038.7,031.7,31.8,-002.9,0005.67,0003.86,0003.52
2023-08-06 13:58:00,SystemResetWarning,0838.3,5.00,000.00,030.2,028.7,000.0,038.7,031.7,31.9,-003.5,0005.57,0003.86,0003.52
2023-08-06 13:59:00,SystemResetWarning,0838.3,4.97,000.00,030.1,026.9,000.0,038.6,031.5,31.5,-002.7,0005.66,0003.85,0003.53
